This is the latest recevied weather packets stored in our database for station/object JS2WAD-13. If no packets are shown the sender has not sent any weather packets the latest 10 day(s).
| Time | Temp. | Humidity | Pressure | Rain* | Wind** | Luminosity | Snow |
|---|---|---|---|---|---|---|---|
| 1778236273 | 19.44° C | 63% | 900.3 hPa | 0 mm | - | 0 W/m² | - |
| 1778235973 | 19.44° C | 62% | 900.1 hPa | 0 mm | - | 0 W/m² | - |
| 1778235673 | 19.44° C | 62% | 899.9 hPa | 0 mm | - | 0 W/m² | - |
| 1778235373 | 19.44° C | 64% | 899.6 hPa | 0 mm | - | 0 W/m² | - |
| 1778235073 | 19.44° C | 61% | 899.8 hPa | 0 mm | - | 0 W/m² | - |
| 1778234773 | 19.44° C | 62% | 899.7 hPa | 0 mm | - | 0 W/m² | - |
| 1778234473 | 19.44° C | 61% | 899.4 hPa | 0 mm | - | 0 W/m² | - |
| 1778234173 | 19.44° C | 61% | 899.7 hPa | 0 mm | - | 0 W/m² | - |
| 1778233873 | 19.44° C | 61% | 899.5 hPa | 0 mm | - | 0 W/m² | - |
| 1778233573 | 19.44° C | 61% | 899 hPa | 0 mm | - | 0 W/m² | - |
| 1778233273 | 20° C | 62% | 898.7 hPa | 0 mm | - | 0 W/m² | - |
| 1778232973 | 20° C | 62% | 898.8 hPa | 0 mm | - | 0 W/m² | - |
| 1778232673 | 20° C | 60% | 898.5 hPa | 0 mm | - | 0 W/m² | - |
| 1778232373 | 20° C | 61% | 898.9 hPa | 0 mm | - | 5 W/m² | - |
| 1778232073 | 20.56° C | 60% | 898.5 hPa | 0 mm | - | 9 W/m² | - |
| 1778231773 | 20.56° C | 59% | 898.4 hPa | 0 mm | - | 12 W/m² | - |
| 1778231473 | 20.56° C | 59% | 898.5 hPa | 0 mm | - | 16 W/m² | - |
| 1778231173 | 21.11° C | 59% | 898.5 hPa | 0 mm | - | 21 W/m² | - |
| 1778230873 | 21.11° C | 60% | 898.4 hPa | 0 mm | - | 37 W/m² | - |
| 1778230573 | 21.67° C | 58% | 898.3 hPa | 0 mm | - | 70 W/m² | - |
| 1778230273 | 21.67° C | 60% | 898.1 hPa | 0 mm | - | 127 W/m² | - |
| 1778229973 | 21.67° C | 59% | 898.1 hPa | 0 mm | - | 169 W/m² | - |
| 1778229674 | 21.67° C | 62% | 898 hPa | 0 mm | - | 54 W/m² | - |
| 1778229373 | 21.67° C | 61% | 897.8 hPa | 0 mm | - | 51 W/m² | - |
| 1778229073 | 21.67° C | 62% | 897.8 hPa | 0 mm | - | 28 W/m² | - |
* Rain latest hour (hover to see other rain measurements)
** Current wind speed in m/s (hover to see current wind gust speed)